Kasagimaru — JJ3905 — position and weather

sailwx.info

Track history (hours):
 
Tides and Currents Weather Stations Pressure Air Temp Water Temp Dewpoint Dewpoint Depression Visibility Wind Speed Wind Dir Waves Ship Positions

Kasagimaru

Last reported at 2014-Oct-22 20:33 UTC. Time now 2014-Oct-24 10:20 UTC.
Position N 34°40' E 134°49'.

Length 42 m; draft 3.5 m.

Type: Tug. MMSI: 431300268.

Date/timePositionNaut miles runAvg speedWind from/ knotsBaromVisibWave heightAir tempDewpointWater temp
2014-Oct-22 20:33N 34°40' E 134°49'1312.7
2014-Oct-22 19:33N 34°37' E 135°03'1212.4
2014-Oct-22 18:33N 34°34' E 135°18'7 7.1
2014-Oct-22 17:33N 34°33' E 135°27'0 0.0
2014-Oct-22 16:33N 34°33' E 135°27'0 0.0
2014-Oct-22 15:33N 34°33' E 135°27'0 0.0
2014-Oct-22 14:33N 34°33' E 135°27'0 0.0
2014-Oct-22 13:33N 34°33' E 135°27'0 0.0
2014-Oct-22 12:32N 34°33' E 135°27'0 0.0
2014-Oct-22 11:33N 34°33' E 135°27'0 0.0
2014-Oct-22 10:33N 34°33' E 135°27'0 0.0
2014-Oct-22 09:26N 34°33' E 135°27'0 0.0
2014-Oct-22 08:19N 34°33' E 135°27'0 0.0
2014-Oct-22 07:31N 34°33' E 135°27'0 0.0
2014-Oct-22 06:19N 34°33' E 135°27'0 0.0
2014-Oct-22 05:22N 34°33' E 135°27'0 0.0
2014-Oct-22 04:32N 34°33' E 135°27'0 0.0
2014-Oct-22 03:20N 34°33' E 135°27'2 2.6
2014-Oct-22 02:33N 34°33' E 135°24'0 0.1
2014-Oct-22 01:33N 34°33' E 135°24'2 1.7
2014-Oct-22 00:25N 34°33' E 135°22'1 1.4
2014-Oct-21 23:33N 34°33' E 135°20'5 5.1
2014-Oct-21 22:32N 34°33' E 135°27'0 0.0
2014-Oct-21 21:26N 34°33' E 135°27'0 0.0
2014-Oct-21 20:33N 34°33' E 135°27'0 0.0
2014-Oct-21 19:33N 34°33' E 135°27'0 0.0
2014-Oct-21 18:32N 34°33' E 135°27'0 0.0
2014-Oct-21 17:32N 34°33' E 135°27'0 0.0
2014-Oct-21 16:33N 34°33' E 135°27'0 0.0
2014-Oct-21 15:33N 34°33' E 135°27'0 0.0
2014-Oct-21 14:33N 34°33' E 135°27'0 0.0
2014-Oct-21 13:33N 34°33' E 135°27'0 0.0
2014-Oct-21 12:33N 34°33' E 135°27'0 0.0
2014-Oct-21 11:33N 34°33' E 135°27'0 0.0
2014-Oct-21 10:33N 34°33' E 135°27'0 0.0
2014-Oct-21 09:04N 34°33' E 135°27'0 0.0
2014-Oct-21 08:33N 34°33' E 135°27'0 0.0
2014-Oct-21 07:31N 34°33' E 135°27'0 0.0
2014-Oct-21 05:33N 34°33' E 135°27'0 0.0
2014-Oct-21 04:31N 34°33' E 135°27'0 0.0
2014-Oct-21 03:33N 34°33' E 135°27'0 0.0
2014-Oct-21 02:26N 34°33' E 135°27'0 0.0
2014-Oct-21 01:31N 34°33' E 135°27'0 0.0
2014-Oct-21 00:33N 34°33' E 135°27'4 3.7
2014-Oct-20 23:33N 34°33' E 135°22'3 2.8
2014-Oct-20 22:33N 34°33' E 135°25'0 0.1
2014-Oct-20 21:33N 34°33' E 135°25'0 0.1
2014-Oct-20 20:33N 34°33' E 135°25'0 0.1
2014-Oct-20 19:33N 34°33' E 135°25'0 0.0
2014-Oct-20 18:33N 34°33' E 135°25'0 0.1
2014-Oct-20 17:29N 34°33' E 135°25'0 0.1
2014-Oct-20 16:33N 34°33' E 135°25'0 0.0
2014-Oct-20 15:32N 34°33' E 135°25'0 0.0
2014-Oct-20 14:33N 34°33' E 135°25'0 0.0
2014-Oct-20 13:32N 34°33' E 135°25'0 0.0
2014-Oct-20 12:33N 34°33' E 135°25'0 0.1
2014-Oct-20 11:33N 34°33' E 135°25'0 0.0
2014-Oct-20 10:33N 34°33' E 135°25'0 0.1
2014-Oct-20 09:33N 34°33' E 135°25'0 0.0
2014-Oct-20 08:30N 34°33' E 135°25'0 0.1
2014-Oct-20 07:32N 34°33' E 135°25'0 0.1
2014-Oct-20 06:31N 34°33' E 135°25'0 0.0
2014-Oct-20 05:31N 34°33' E 135°25'0 0.1
2014-Oct-20 04:33N 34°33' E 135°25'0 0.1
2014-Oct-20 03:31N 34°33' E 135°25'0 0.0
2014-Oct-20 02:31N 34°33' E 135°25'0 0.1
2014-Oct-20 01:31N 34°33' E 135°25'3 2.9
2014-Oct-20 00:33N 34°33' E 135°22'2 1.7
2014-Oct-19 23:26N 34°34' E 135°24'1 1.4
2014-Oct-19 22:22N 34°33' E 135°23'3 3.0
2014-Oct-19 21:33N 34°33' E 135°20'1 1.1
2014-Oct-19 20:33N 34°34' E 135°19'8 8.4
2014-Oct-19 19:33N 34°35' E 135°09'10 9.2
2014-Oct-19 18:31N 34°37' E 134°58'9 9.6
2014-Oct-19 17:33N 34°35' E 135°09'10 9.2
2014-Oct-19 16:30N 34°26' E 135°04'1111.2
2014-Oct-19 15:33N 34°16' E 134°59'3 2.9
2014-Oct-19 14:23N 34°13' E 135°02'1012.2
2014-Oct-19 13:33N 34°22' E 135°08'1212.2
2014-Oct-19 12:33N 34°29' E 135°20'7 1.0
2014-Oct-19 05:33N 34°33' E 135°27'1 1.4
2014-Oct-19 04:33N 34°33' E 135°25'0 0.0
2014-Oct-19 03:33N 34°33' E 135°25'2 1.8
2014-Oct-19 02:33N 34°33' E 135°23'9 9.3
2014-Oct-19 01:34N 34°29' E 135°13'1711.9
2014-Oct-19 00:06N 34°16' E 134°59'610.7
2014-Oct-18 23:33N 34°10' E 134°59'8 7.9
2014-Oct-18 22:33N 34°13' E 135°08'1 0.6
2014-Oct-18 21:33N 34°13' E 135°09'0 0.0
2014-Oct-18 20:33N 34°13' E 135°09'0 0.0
2014-Oct-18 19:33N 34°13' E 135°09'0 0.0
2014-Oct-18 18:33N 34°13' E 135°09'0 0.0
2014-Oct-18 17:33N 34°13' E 135°09'0 0.0
2014-Oct-18 16:33N 34°13' E 135°09'0 0.0
2014-Oct-18 15:33N 34°13' E 135°09'0 0.0
2014-Oct-18 14:33N 34°13' E 135°09'0 0.0
2014-Oct-18 13:33N 34°13' E 135°09'0 0.0
2014-Oct-18 12:33N 34°13' E 135°09'0 0.0
2014-Oct-18 11:33N 34°13' E 135°09'0 0.0
2014-Oct-18 10:33N 34°13' E 135°09'0 0.0
2014-Oct-18 09:33N 34°13' E 135°09'0 0.0
2014-Oct-18 08:33N 34°13' E 135°09'0 0.0
2014-Oct-18 07:33N 34°13' E 135°09'0 0.0
2014-Oct-18 06:33N 34°13' E 135°09'7 6.4
2014-Oct-18 05:32N 34°13' E 135°01'1210.9
2014-Oct-18 04:29N 34°25' E 135°01'1010.7
2014-Oct-18 03:33N 34°34' E 135°05'8 0.3
2014-Oct-17 01:20N 34°36' E 134°55'7 8.8
2014-Oct-17 00:33N 34°36' E 135°04'7 6.9
2014-Oct-16 23:33N 34°30' E 135°06'1512.9
2014-Oct-16 22:26N 34°16' E 134°59'6 7.0
2014-Oct-16 21:33N 34°11' E 135°02'6 6.2
2014-Oct-16 20:33N 34°13' E 135°09'0 0.0
2014-Oct-16 19:33N 34°13' E 135°09'0 0.0
2014-Oct-16 18:33N 34°13' E 135°09'0 0.0
2014-Oct-16 17:33N 34°13' E 135°09'0 0.0
2014-Oct-16 16:33N 34°13' E 135°09'0 0.0
2014-Oct-16 15:33N 34°13' E 135°09'0 0.0
2014-Oct-16 14:33N 34°13' E 135°09'0 0.0
2014-Oct-16 13:33N 34°13' E 135°09'0 0.0
2014-Oct-16 12:33N 34°13' E 135°09'0 0.0
2014-Oct-16 11:33N 34°13' E 135°09'0 0.0
2014-Oct-16 10:33N 34°13' E 135°09'0 0.0
2014-Oct-16 09:33N 34°13' E 135°09'0 0.0
2014-Oct-16 08:33N 34°13' E 135°09'0 0.0
2014-Oct-16 07:33N 34°13' E 135°09'7 6.5
2014-Oct-16 06:33N 34°15' E 135°01'1111.3
2014-Oct-16 05:32N 34°26' E 135°02'9 9.2
2014-Oct-16 04:33N 34°35' E 135°06'10 0.4
2014-Oct-15 01:20N 34°36' E 134°54'810.6
2014-Oct-15 00:33N 34°36' E 135°04'6 6.1
2014-Oct-14 23:33N 34°30' E 135°07'1512.0
2014-Oct-14 22:18N 34°16' E 134°59'7 9.9
2014-Oct-14 21:33N 34°09' E 135°00'9 8.5
2014-Oct-14 20:33N 34°13' E 135°09'0 0.0
2014-Oct-14 19:33N 34°13' E 135°09'0 0.0
2014-Oct-14 18:33N 34°13' E 135°09'0 0.0
2014-Oct-14 17:33N 34°13' E 135°09'0 0.0
2014-Oct-14 16:33N 34°13' E 135°09'0 0.0
2014-Oct-14 15:33N 34°13' E 135°09'0 0.0
2014-Oct-14 14:33N 34°13' E 135°09'0 0.0
2014-Oct-14 13:33N 34°13' E 135°09'0 0.0
2014-Oct-14 12:33N 34°13' E 135°09'11 1.1
2014-Oct-14 02:33N 34°23' E 135°02'1313.4
2014-Oct-14 01:33N 34°30' E 135°17'9 8.8
2014-Oct-14 00:31N 34°33' E 135°27'0 0.0
2014-Oct-13 23:33N 34°33' E 135°27'0 0.0
2014-Oct-13 19:18N 34°33' E 135°27'0 0.0
2014-Oct-13 17:31N 34°33' E 135°27'0 0.0
2014-Oct-13 16:12N 34°33' E 135°27'0 0.0
2014-Oct-13 15:30N 34°33' E 135°27'0 0.0
2014-Oct-13 14:33N 34°33' E 135°27'0 0.0
2014-Oct-13 13:32N 34°33' E 135°27'0 0.0
2014-Oct-13 12:33N 34°33' E 135°27'0 0.0
2014-Oct-13 11:33N 34°33' E 135°27'0 0.0
2014-Oct-13 10:33N 34°33' E 135°27'0 0.0
2014-Oct-13 09:34N 34°33' E 135°27'0 0.0
2014-Oct-13 08:33N 34°33' E 135°27'0 0.0
2014-Oct-13 07:34N 34°33' E 135°27'0 0.0
2014-Oct-13 04:04N 34°33' E 135°27'0 0.0
2014-Oct-13 03:31N 34°33' E 135°27'0 0.0
2014-Oct-13 00:21N 34°33' E 135°27'  
Track history (hours):
 
Tides and Currents Weather Stations Pressure Air Temp Water Temp Dewpoint Dewpoint Depression Visibility Wind Speed Wind Dir Waves Ship Positions

Kasagimaru

Last reported at 2014-Oct-22 20:33 UTC. Time now 2014-Oct-24 10:20 UTC.
Position N 34°40' E 134°49'.

Length 42 m; draft 3.5 m.

Type: Tug. MMSI: 431300268.

Date/timePositionNaut miles runAvg speedWind from/ knotsBaromVisibWave heightAir tempDewpointWater temp
2014-Oct-22 20:33N 34°40' E 134°49'1312.7
2014-Oct-22 19:33N 34°37' E 135°03'1212.4
2014-Oct-22 18:33N 34°34' E 135°18'7 7.1
2014-Oct-22 17:33N 34°33' E 135°27'0 0.0
2014-Oct-22 16:33N 34°33' E 135°27'0 0.0
2014-Oct-22 15:33N 34°33' E 135°27'0 0.0
2014-Oct-22 14:33N 34°33' E 135°27'0 0.0
2014-Oct-22 13:33N 34°33' E 135°27'0 0.0
2014-Oct-22 12:32N 34°33' E 135°27'0 0.0
2014-Oct-22 11:33N 34°33' E 135°27'0 0.0
2014-Oct-22 10:33N 34°33' E 135°27'0 0.0
2014-Oct-22 09:26N 34°33' E 135°27'0 0.0
2014-Oct-22 08:19N 34°33' E 135°27'0 0.0
2014-Oct-22 07:31N 34°33' E 135°27'0 0.0
2014-Oct-22 06:19N 34°33' E 135°27'0 0.0
2014-Oct-22 05:22N 34°33' E 135°27'0 0.0
2014-Oct-22 04:32N 34°33' E 135°27'0 0.0
2014-Oct-22 03:20N 34°33' E 135°27'2 2.6
2014-Oct-22 02:33N 34°33' E 135°24'0 0.1
2014-Oct-22 01:33N 34°33' E 135°24'2 1.7
2014-Oct-22 00:25N 34°33' E 135°22'1 1.4
2014-Oct-21 23:33N 34°33' E 135°20'5 5.1
2014-Oct-21 22:32N 34°33' E 135°27'0 0.0
2014-Oct-21 21:26N 34°33' E 135°27'0 0.0
2014-Oct-21 20:33N 34°33' E 135°27'0 0.0
2014-Oct-21 19:33N 34°33' E 135°27'0 0.0
2014-Oct-21 18:32N 34°33' E 135°27'0 0.0
2014-Oct-21 17:32N 34°33' E 135°27'0 0.0
2014-Oct-21 16:33N 34°33' E 135°27'0 0.0
2014-Oct-21 15:33N 34°33' E 135°27'0 0.0
2014-Oct-21 14:33N 34°33' E 135°27'0 0.0
2014-Oct-21 13:33N 34°33' E 135°27'0 0.0
2014-Oct-21 12:33N 34°33' E 135°27'0 0.0
2014-Oct-21 11:33N 34°33' E 135°27'0 0.0
2014-Oct-21 10:33N 34°33' E 135°27'0 0.0
2014-Oct-21 09:04N 34°33' E 135°27'0 0.0
2014-Oct-21 08:33N 34°33' E 135°27'0 0.0
2014-Oct-21 07:31N 34°33' E 135°27'0 0.0
2014-Oct-21 05:33N 34°33' E 135°27'0 0.0
2014-Oct-21 04:31N 34°33' E 135°27'0 0.0
2014-Oct-21 03:33N 34°33' E 135°27'0 0.0
2014-Oct-21 02:26N 34°33' E 135°27'0 0.0
2014-Oct-21 01:31N 34°33' E 135°27'0 0.0
2014-Oct-21 00:33N 34°33' E 135°27'4 3.7
2014-Oct-20 23:33N 34°33' E 135°22'3 2.8
2014-Oct-20 22:33N 34°33' E 135°25'0 0.1
2014-Oct-20 21:33N 34°33' E 135°25'0 0.1
2014-Oct-20 20:33N 34°33' E 135°25'0 0.1
2014-Oct-20 19:33N 34°33' E 135°25'0 0.0
2014-Oct-20 18:33N 34°33' E 135°25'0 0.1
2014-Oct-20 17:29N 34°33' E 135°25'0 0.1
2014-Oct-20 16:33N 34°33' E 135°25'0 0.0
2014-Oct-20 15:32N 34°33' E 135°25'0 0.0
2014-Oct-20 14:33N 34°33' E 135°25'0 0.0
2014-Oct-20 13:32N 34°33' E 135°25'0 0.0
2014-Oct-20 12:33N 34°33' E 135°25'0 0.1
2014-Oct-20 11:33N 34°33' E 135°25'0 0.0
2014-Oct-20 10:33N 34°33' E 135°25'0 0.1
2014-Oct-20 09:33N 34°33' E 135°25'0 0.0
2014-Oct-20 08:30N 34°33' E 135°25'0 0.1
2014-Oct-20 07:32N 34°33' E 135°25'0 0.1
2014-Oct-20 06:31N 34°33' E 135°25'0 0.0
2014-Oct-20 05:31N 34°33' E 135°25'0 0.1
2014-Oct-20 04:33N 34°33' E 135°25'0 0.1
2014-Oct-20 03:31N 34°33' E 135°25'0 0.0
2014-Oct-20 02:31N 34°33' E 135°25'0 0.1
2014-Oct-20 01:31N 34°33' E 135°25'3 2.9
2014-Oct-20 00:33N 34°33' E 135°22'2 1.7
2014-Oct-19 23:26N 34°34' E 135°24'1 1.4
2014-Oct-19 22:22N 34°33' E 135°23'3 3.0
2014-Oct-19 21:33N 34°33' E 135°20'1 1.1
2014-Oct-19 20:33N 34°34' E 135°19'8 8.4
2014-Oct-19 19:33N 34°35' E 135°09'10 9.2
2014-Oct-19 18:31N 34°37' E 134°58'9 9.6
2014-Oct-19 17:33N 34°35' E 135°09'10 9.2
2014-Oct-19 16:30N 34°26' E 135°04'1111.2
2014-Oct-19 15:33N 34°16' E 134°59'3 2.9
2014-Oct-19 14:23N 34°13' E 135°02'1012.2
2014-Oct-19 13:33N 34°22' E 135°08'1212.2
2014-Oct-19 12:33N 34°29' E 135°20'7 1.0
2014-Oct-19 05:33N 34°33' E 135°27'1 1.4
2014-Oct-19 04:33N 34°33' E 135°25'0 0.0
2014-Oct-19 03:33N 34°33' E 135°25'2 1.8
2014-Oct-19 02:33N 34°33' E 135°23'9 9.3
2014-Oct-19 01:34N 34°29' E 135°13'1711.9
2014-Oct-19 00:06N 34°16' E 134°59'610.7
2014-Oct-18 23:33N 34°10' E 134°59'8 7.9
2014-Oct-18 22:33N 34°13' E 135°08'1 0.6
2014-Oct-18 21:33N 34°13' E 135°09'0 0.0
2014-Oct-18 20:33N 34°13' E 135°09'0 0.0
2014-Oct-18 19:33N 34°13' E 135°09'0 0.0
2014-Oct-18 18:33N 34°13' E 135°09'0 0.0
2014-Oct-18 17:33N 34°13' E 135°09'0 0.0
2014-Oct-18 16:33N 34°13' E 135°09'0 0.0
2014-Oct-18 15:33N 34°13' E 135°09'0 0.0
2014-Oct-18 14:33N 34°13' E 135°09'0 0.0
2014-Oct-18 13:33N 34°13' E 135°09'0 0.0
2014-Oct-18 12:33N 34°13' E 135°09'0 0.0
2014-Oct-18 11:33N 34°13' E 135°09'0 0.0
2014-Oct-18 10:33N 34°13' E 135°09'0 0.0
2014-Oct-18 09:33N 34°13' E 135°09'0 0.0
2014-Oct-18 08:33N 34°13' E 135°09'0 0.0
2014-Oct-18 07:33N 34°13' E 135°09'0 0.0
2014-Oct-18 06:33N 34°13' E 135°09'7 6.4
2014-Oct-18 05:32N 34°13' E 135°01'1210.9
2014-Oct-18 04:29N 34°25' E 135°01'1010.7
2014-Oct-18 03:33N 34°34' E 135°05'8 0.3
2014-Oct-17 01:20N 34°36' E 134°55'7 8.8
2014-Oct-17 00:33N 34°36' E 135°04'7 6.9
2014-Oct-16 23:33N 34°30' E 135°06'1512.9
2014-Oct-16 22:26N 34°16' E 134°59'6 7.0
2014-Oct-16 21:33N 34°11' E 135°02'6 6.2
2014-Oct-16 20:33N 34°13' E 135°09'0 0.0
2014-Oct-16 19:33N 34°13' E 135°09'0 0.0
2014-Oct-16 18:33N 34°13' E 135°09'0 0.0
2014-Oct-16 17:33N 34°13' E 135°09'0 0.0
2014-Oct-16 16:33N 34°13' E 135°09'0 0.0
2014-Oct-16 15:33N 34°13' E 135°09'0 0.0
2014-Oct-16 14:33N 34°13' E 135°09'0 0.0
2014-Oct-16 13:33N 34°13' E 135°09'0 0.0
2014-Oct-16 12:33N 34°13' E 135°09'0 0.0
2014-Oct-16 11:33N 34°13' E 135°09'0 0.0
2014-Oct-16 10:33N 34°13' E 135°09'0 0.0
2014-Oct-16 09:33N 34°13' E 135°09'0 0.0
2014-Oct-16 08:33N 34°13' E 135°09'0 0.0
2014-Oct-16 07:33N 34°13' E 135°09'7 6.5
2014-Oct-16 06:33N 34°15' E 135°01'1111.3
2014-Oct-16 05:32N 34°26' E 135°02'9 9.2
2014-Oct-16 04:33N 34°35' E 135°06'10 0.4
2014-Oct-15 01:20N 34°36' E 134°54'810.6
2014-Oct-15 00:33N 34°36' E 135°04'6 6.1
2014-Oct-14 23:33N 34°30' E 135°07'1512.0
2014-Oct-14 22:18N 34°16' E 134°59'7 9.9
2014-Oct-14 21:33N 34°09' E 135°00'9 8.5
2014-Oct-14 20:33N 34°13' E 135°09'0 0.0
2014-Oct-14 19:33N 34°13' E 135°09'0 0.0
2014-Oct-14 18:33N 34°13' E 135°09'0 0.0
2014-Oct-14 17:33N 34°13' E 135°09'0 0.0
2014-Oct-14 16:33N 34°13' E 135°09'0 0.0
2014-Oct-14 15:33N 34°13' E 135°09'0 0.0
2014-Oct-14 14:33N 34°13' E 135°09'0 0.0
2014-Oct-14 13:33N 34°13' E 135°09'0 0.0
2014-Oct-14 12:33N 34°13' E 135°09'11 1.1
2014-Oct-14 02:33N 34°23' E 135°02'1313.4
2014-Oct-14 01:33N 34°30' E 135°17'9 8.8
2014-Oct-14 00:31N 34°33' E 135°27'0 0.0
2014-Oct-13 23:33N 34°33' E 135°27'0 0.0
2014-Oct-13 19:18N 34°33' E 135°27'0 0.0
2014-Oct-13 17:31N 34°33' E 135°27'0 0.0
2014-Oct-13 16:12N 34°33' E 135°27'0 0.0
2014-Oct-13 15:30N 34°33' E 135°27'0 0.0
2014-Oct-13 14:33N 34°33' E 135°27'0 0.0
2014-Oct-13 13:32N 34°33' E 135°27'0 0.0
2014-Oct-13 12:33N 34°33' E 135°27'0 0.0
2014-Oct-13 11:33N 34°33' E 135°27'0 0.0
2014-Oct-13 10:33N 34°33' E 135°27'0 0.0
2014-Oct-13 09:34N 34°33' E 135°27'0 0.0
2014-Oct-13 08:33N 34°33' E 135°27'0 0.0
2014-Oct-13 07:34N 34°33' E 135°27'0 0.0
2014-Oct-13 04:04N 34°33' E 135°27'0 0.0
2014-Oct-13 03:31N 34°33' E 135°27'0 0.0
2014-Oct-13 00:21N 34°33' E 135°27'  

Dump ship's entire track history